Location: Dal�� Lhota
(48.7500°N, 14.0167°E)
Time: 01:49:37
(UTC+00:00)

NOSS 3-4 (C) - Pass Details

Date: 24 September 2020
Orbit: 886 x 1326 km, 63.4° (Epoch: 27 October)

Event Time Altitude Azimuth Distance (km) Brightness Sun altitude
Rises 18:05:06 0° 190° (S) 3,478 6.4 -12.0°
Reaches altitude 10° 18:07:43 10° 181° (S) 2,552 5.6 -12.4°
Maximum altitude 18:13:00 36° 117° (ESE) 1,419 3.9 -13.3°
Drops below altitude 10° 18:18:37 10° 53° (NE) 2,709 5.5 -14.2°
Sets 18:21:28 0° 45° (NE) 3,720 6.3 -14.6°
